Regional Weather Roundup
Issued by NWS

Home | Current Version | Previous Version | Text Only | Print | Product List | Glossary Off
Versions: 1 2 3 4 5 6 7 8 9 10 11 12 13 14 15 16 17 18 19 20 21 22 23 24 25 26 27 28 29 30 31 32 33 34 35 36 37 38 39 40 41 42 43 44 45 46 47 48 49 50

000
ASUS43 KLSX 042010
RWRMO

WEATHER SUMMARY FOR MISSOURI
NATIONAL WEATHER SERVICE SPRINGFIELD MO
300 PM CDT FRI SEP 04 2015

NOTE: "FAIR" INDICATES FEW OR NO CLOUDS BELOW 12,000 FEET WITH NO
       SIGNIFICANT WEATHER AND/OR OBSTRUCTIONS TO VISIBILITY.
       CURRENT SKY AND/OR WEATHER CONDITIONS ARE NOT AVAILABLE FOR
       CHILLICOTHE AND FARMINGTON.

MOZ001>031-035>038-043-044-053-054-042100-
...NORTHERN AND WESTERN MISSOURI...

CITY           SKY/WX    TMP DP  RH WIND       PRES   REMARKS
KANSAS CTY INT MOSUNNY   92  66  42 S14       29.96F HX  94
KANSAS C DTWN  SUNNY     93  68  43 SW14      29.94F HX  97
LEE`S SUMMIT   SUNNY     90  65  43 S13       29.97F HX  92
ST JOSEPH      SUNNY     89  69  51 S13       29.93F HX  93
CHILLICOTHE      N/A     92  70  48 S9        29.96F HX  97
KIRKSVILLE     MOSUNNY   92  65  40 SW5       29.99F HX  94

$$
MOZ066>068-077>081-088>096-101>105-042100-
...SOUTHWEST MISSOURI...

CITY           SKY/WX    TMP DP  RH WIND       PRES   REMARKS
SPRINGFIELD    MOSUNNY   90  66  45 S8        30.02F HX  92

$$
MOZ032>034-039>042-045>050-055>058-069>072-042100-
...CENTRAL MISSOURI...

CITY           SKY/WX    TMP DP  RH WIND       PRES   REMARKS
COLUMBIA       MOSUNNY   91  67  44 SW8       30.00F HX  94
JEFFERSON CITY MOSUNNY   92  64  39 S7        29.98F HX  93
ROLLA          MOSUNNY   91  66  43 VRB7      30.01F HX  93
SEDALIA        SUNNY     93  67  42 S8        30.00F HX  96
WHITEMAN AFB   SUNNY     92  67  43 SW10      29.97F HX  96
WARRENSBURG    SUNNY     91  63  38 SE9       29.97F HX  92
OSAGE BEACH    MOSUNNY   93  66  40 S5        30.01F HX  96

$$
MOZ051-052-059>065-042100-
...EAST CENTRAL MISSOURI...

CITY           SKY/WX    TMP DP  RH WIND       PRES   REMARKS
ST LOUIS INTL  MOSUNNY   95  66  38 SW9       30.00F HX  98
SPIRIT OF STL  MOSUNNY   92  70  48 SW6       29.99S HX  97
ST CHARLES     MOSUNNY   92  67  43 W12       29.98F HX  95

$$
MOZ072>076-082>087-097>100-106>115-042100-
...SOUTH CENTRAL AND SOUTHEAST MISSOURI...

CITY           SKY/WX    TMP DP  RH WIND       PRES   REMARKS
CAPE GIRARDEAU MOSUNNY   90  67  46 CALM      30.00F HX  93
FARMINGTON       N/A    N/A N/A N/A MISG        N/A
POPLAR BLUFF   MOSUNNY   90  68  48 VRB3      30.00F HX  94
WEST PLAINS    MOSUNNY   88  66  48 VRB5      30.05F HX  90

$$


USA.gov is the U.S. government's official web portal to all federal, state and local government web resources and services.